EHI
0 0 0 0 0 0 0 0 0 0 0 0 0 0 0 0 0 0 0 0 0 0 0 0 0 0 0 0 0 0 0 0 0 0 0 0 0 0 0 0 0 0 0
0 0 0 0 0 0 0 0 0 0 0 0 0 0 0 0 0 0 0 0 0 0 0 0 0 0 0 0 0 0 0 0 0 0 0 0 0 0 0 0 0 0 0
0 0 0 0 0 0 0 0 0 0 0 0 0 0 0 0 0 0 0 0 0 0 0 0 0 0 0 0 0 0 0 0 0 0 0 0 0 0 0 0 0 0 0
0 0 0 0 0 0 0 0 0 0 0 0 0 0 0 0 0 0 0 0 0 0 0 0 0 0 0 0 0 0 0 0 0 0 0 0 0 0 0 0 0 0 0
0 0 0 0 0 0 0 0 0 0 0 0 0 0 0 0 0 0 0 0 0 0 0 0 0 0 0 0 0 0 0 0 0 0 0 0 0 0 0 0 0 0 0
0 0 0 0 0 0 0 0 0 0 0 0 0 0 0 0 0 0 0 0 0 0 0 0 0 0 0 0 0 0 0 0 0 0 0 0 0 0 0 0 0 0 0
0 0 0 0 0 0 0 0 0 0 0 0 0 0 0 0 0 0 0 0 0 0 0 0 0 0 0 0 0 0 0 0 0 0 0 0 0 0 0 0 0 0 0
0 0 0 0 0 0 0 0 0 0 0 0 0 0 0 0 0 0 0 0 0 0 0 0 0 0 0 0 0 0 0 0 0 0 0 0 0 0 0 0 0 0 0
0 0 0 0 0 0 0 0 0 0 0 0 0 0 0 0 0 0 0 0 0 0 0 0 0 0 0 0 0 0 0 0 0 0 0 0 0 0 0 0 0 0 0
0 0 0 0 0 0 0 0 0 0 0 0 0 0 0 0 0 0 0 0 0 0 0 0 0 0 0 0 0 0 0 0 0 0 0 0 0 0 0 0 0 0 0
0 0 0 0 0 0 0 0 0 0 0 0 0 0 0 0 0 0 0 0 0 0 0 0 0 0 0 0 0 0 0 0 0 0 0 0 0 0 0 0 0 0 0
0 0 0 0 0 0 0 0 0 0 0 0 0 0 0 0 0 0 0 0 0 0 0 0 0 0 0 0 0 0 0 0 0 0 0 0 0 0 0 0 0 0 0
0 0 0 0 0 0 0 0 0 0 0 0 0 0 0 0 0 0 0 0 0 0 0 0 0 0 0 0 0 0 0 0 0 0 0 0 0 0 0 0 0 0 0
0 0 0 0 0 0 0 0 0 0 0 0 0 0 0 0 0 0 0 0 0 0 0 0 0 0 0 0 0 0 0 0 0 0 0 0 0 0 0 0 0 0 0
0 0 0 0 0 0 0 0 0 0 0 0 0 0 0 0 0 0 0 0 0 0 0 0 0 0 0 0 0 0 0 0 0 0 0 0 0 0 0 0 0 0 0
0 0 0 0 0 0 0 0 0 0 0 0 0 0 0 0 0 0 0 0 0 0 0 0 0 0 0 0 0 0 0 0 0 0 0 0 0 0 0 0 0 0 0
0 0 0 0 0 0 0 0 0 0 0 0 0 0 0 0 0 0 0 0 0 0 0 0 0 0 0 0 0 0 0 0 0 0 0 0 0 0 0 0 0 0 0
0 0 0 0 0 0 0 0 0 0 0 0 0 0 0 0 0 0 0 0 0 0 0 0 0 0 0 0 0 0 0 0 0 0 0 0 0 0 0 0 0 0 0
0 0 0 0 0 0 0 0 0 0 0 0 0 0 0 0 0 0 0 0 0 0 0 0 0 0 0 0 0 0 0 0 0 0 0 0 0 0 0 0 0 0 0
0 0 0 0 0 0 0 0 0 0 0 0 0 0 0 0 0 0 0 0 0 0 0 0 0 0 0 0 0 0 0 0 0 0 0 0 0 0 0 0 0 0 0
0 0 0 0 0 0 0 0 0 0 0 0 0 0 0 0 0 0 0 0 0 0 0 0 0 0 0 0 0 0 0 0 0 0 0 0 0 0 0 0 0 0 0
0 0 0 0 0 0 0 0 0 0 0 0 0 0 0 0 0 0 0 0 0 0 0 0 0 0 0 0 0 0 0 0 0 0 0 0 0 0 0 0 0 0 0
0 0 0 0 0 0 0 0 0 0 0 0 0 0 0 0 0 0 0 0 0 0 0 0 0 0 0 0 0 0 0 0 0 0 0 0 0 0 0 0 0 0 0
0 0 0 0 0 0 0 0 0 0 0 0 0 0 0 0 0 0 0 0 0 0 0 0 0 0 0 0 0 0 0 0 0 0 0 0 0 0 0 0 0 0 0
0 0 0 0 0 0 0 0 0 0 0 0 0 0 0 0 0 0 0 0 0 0 0 0 0 0 0 0 0 0 0 0 0 0 0 0 0 0 0 0 0 0 0
0 0 0 0 0 0 0 0 0 0 0 0 0 0 0 0 0 0 0 0 0 0 0 0 0 0 0 0 0 0 0 0 0 0 0 0 0 0 0 0 0 0 0
Wind_Speed
4 3 2 2 2 2 2 1 0 1 1 2 2 1 2 2 2 1 2 4 5 5 6 7 7 8 8 8 8 9 9 9 10 10 11 11 11 11 12 12 13 13 13
5 4 3 2 2 2 2 2 1 0 1 1 2 2 2 2 2 2 2 3 4 3 4 5 6 7 8 8 8 8 9 9 10 10 11 11 12 12 13 13 13 13 13
6 5 3 3 2 2 2 1 1 1 1 1 2 3 2 2 2 2 2 1 1 2 2 4 6 7 8 8 9 9 9 10 10 10 11 12 12 13 13 13 14 14 14
7 5 4 3 3 2 2 2 1 1 1 1 2 3 2 2 3 2 1 1 0 1 2 3 5 6 7 8 9 9 10 11 11 11 12 12 12 13 14 14 14 15 15
7 5 4 3 3 3 2 2 1 1 0 1 2 2 2 2 2 2 1 0 0 0 0 2 3 5 7 8 9 11 11 11 11 11 12 12 13 13 14 14 15 15 15
7 6 4 4 4 3 2 2 1 1 0 1 2 3 3 3 2 1 1 1 1 0 0 1 2 3 6 8 9 11 12 12 12 12 12 13 13 14 14 15 15 15 16
7 6 4 4 4 3 3 3 2 1 0 1 2 3 4 3 2 2 1 1 1 1 1 1 1 1 3 6 9 11 13 12 13 13 13 13 14 15 15 15 16 16 16
8 7 6 5 5 4 3 3 3 2 0 1 2 2 3 5 3 2 2 1 1 1 2 2 2 2 2 2 5 10 11 13 13 13 14 14 15 16 16 16 16 17 17
7 7 7 6 5 5 4 4 4 4 2 0 1 3 2 2 3 4 2 2 2 2 2 3 3 3 3 2 3 7 11 13 14 14 15 15 16 16 17 17 17 17 17
7 7 7 7 6 5 5 4 4 3 4 2 1 1 2 3 2 3 4 3 3 3 3 3 4 4 4 3 4 8 11 13 14 15 16 17 17 18 18 17 17 18 18
6 7 7 7 6 5 5 5 4 4 4 4 3 2 1 1 2 2 4 4 4 3 4 4 4 4 4 3 3 7 12 13 15 16 17 18 18 19 19 19 18 18 19
5 6 7 7 7 5 6 5 5 5 4 4 3 3 3 3 3 3 4 4 5 4 4 4 3 3 3 3 5 10 13 14 16 17 18 18 19 19 19 19 19 19 20
5 7 7 7 6 6 6 5 5 5 5 4 4 4 3 4 3 3 3 4 4 4 3 3 3 3 3 2 4 11 12 15 17 18 18 19 19 20 20 20 20 20 20
7 7 7 7 7 7 6 5 4 4 4 5 5 4 3 3 3 3 3 2 4 4 3 5 3 3 3 2 6 11 7 15 18 18 19 19 19 20 20 20 20 20 21
5 7 7 7 7 7 6 6 4 4 4 4 4 4 3 3 3 3 3 3 3 4 5 4 3 3 3 3 7 5 5 13 18 19 20 20 20 20 21 20 20 20 21
7 7 7 7 7 6 6 5 4 4 4 4 3 4 4 3 3 3 3 3 4 5 6 4 4 4 4 5 10 6 5 17 18 19 20 20 20 21 21 21 21 21 21
7 8 8 7 7 6 6 5 5 5 5 4 4 4 5 4 3 3 3 3 4 4 8 7 4 4 4 6 7 5 6 6 8 17 20 21 21 21 21 21 21 22 22
7 8 7 7 7 6 6 6 6 6 6 5 5 5 5 4 5 4 4 4 5 5 6 9 5 4 6 6 6 6 7 7 6 15 20 20 21 21 21 21 21 22 21
7 7 7 7 7 6 6 6 6 6 6 6 5 6 6 5 6 5 5 5 5 5 5 6 7 4 4 5 5 6 7 6 7 11 16 17 19 20 21 22 22 22 22
7 7 7 6 6 6 6 5 5 5 5 5 5 5 6 6 7 6 5 6 5 5 5 6 7 5 5 5 4 5 6 4 6 7 11 13 17 20 21 22 22 22 21
6 6 5 5 5 5 5 5 5 5 5 5 5 5 6 8 10 8 6 5 5 5 5 6 7 6 5 4 5 4 7 6 6 6 6 7 7 6 9 14 18 20 21
5 5 5 5 5 4 6 8 6 5 5 5 6 6 6 7 10 13 15 14 11 7 6 6 6 7 8 6 5 6 6 6 6 3 4 6 4 6 6 6 15 21 21
5 5 5 5 5 5 7 8 8 5 5 5 5 5 5 6 9 6 10 14 13 16 16 10 8 8 8 6 6 7 7 7 8 4 4 6 4 6 6 8 18 20 20
4 4 4 5 4 4 6 7 7 4 4 5 5 6 6 6 7 7 6 6 7 8 10 7 7 8 7 7 7 7 8 7 6 5 4 6 4 5 6 6 15 18 18
3 3 3 4 4 4 6 6 6 3 4 5 5 5 5 6 12 14 8 6 7 7 11 15 15 14 16 16 12 5 4 6 7 4 3 4 4 4 5 5 8 14 16
3 3 3 3 4 4 5 6 5 2 3 4 4 5 9 10 13 14 7 6 8 8 6 7 9 11 9 10 14 7 4 6 6 5 2 2 3 3 4 3 3 5 7
Wind_Direction
179 185 196 199 201 194 196 207 263 319 333 336 345 356 344 334 326 315 303 303 301 310 329 340 345 345 344 344 343 341 338 334 332 331 330 327 327 326 326 324 323 320 315
177 179 185 186 190 192 186 170 170 125 355 358 356 353 341 335 330 326 305 314 317 315 332 343 348 351 351 349 346 344 342 338 336 335 331 328 327 324 322 321 319 317 315
176 173 173 180 190 183 167 134 111 77 34 8 343 330 326 327 326 319 311 305 319 332 347 353 355 352 349 345 345 345 343 339 334 330 328 326 323 321 320 319 316 315 313
175 167 168 181 177 159 144 135 116 76 14 349 320 313 319 319 319 312 313 322 344 360 350 353 355 350 347 342 342 341 338 333 330 328 326 324 322 320 317 315 314 312 310
174 165 171 177 163 148 147 148 118 127 330 315 300 303 319 317 315 326 350 23 126 137 339 341 351 347 341 335 336 336 333 329 327 325 324 322 320 318 316 315 313 311 309
174 165 167 171 159 149 150 142 132 104 154 292 312 328 326 329 338 357 348 13 27 68 34 347 342 332 328 327 330 328 325 325 323 322 322 320 317 316 314 313 312 310 308
174 169 167 166 161 163 169 161 143 123 22 17 23 349 339 348 11 18 2 7 5 3 5 339 307 297 311 321 324 323 323 322 320 319 318 318 317 314 313 312 311 310 308
176 174 170 169 168 161 160 160 146 139 122 82 105 52 350 341 338 354 344 352 349 353 343 332 310 289 279 284 301 317 317 316 316 317 316 317 316 314 313 312 312 311 310
178 173 174 170 170 166 172 177 163 158 171 201 138 141 144 255 303 316 322 329 324 319 312 309 300 295 287 277 286 304 309 312 314 315 315 316 315 313 312 312 312 311 310
178 175 174 172 171 170 174 181 172 165 157 180 204 178 173 170 191 303 310 308 310 297 296 296 296 294 290 286 288 303 308 310 311 312 313 313 313 312 311 312 311 310 308
184 180 175 173 175 176 178 176 170 174 170 172 178 177 171 165 178 198 277 301 310 282 273 272 275 278 284 285 286 294 307 311 310 311 311 310 310 310 309 309 308 306 305
188 188 180 178 179 178 181 183 181 181 183 180 181 179 177 184 199 197 239 271 286 282 273 265 261 263 272 278 289 306 311 310 310 309 309 309 308 307 306 305 305 304 303
193 197 186 184 183 185 183 180 182 190 187 188 194 200 201 206 192 190 218 262 278 288 290 277 252 253 263 267 287 305 307 308 308 308 308 307 306 305 303 302 302 302 301
196 189 188 188 187 184 184 182 185 193 190 198 207 206 211 220 204 197 200 226 287 292 280 272 280 252 259 269 285 305 300 305 306 305 305 305 304 303 301 300 300 299 299
186 183 186 187 189 188 186 181 191 198 194 203 210 213 219 226 217 216 207 192 210 276 286 263 267 263 260 269 288 287 275 296 303 303 303 302 301 301 300 299 298 298 298
180 178 186 189 190 189 186 184 192 199 197 210 208 214 228 232 230 223 219 216 207 225 265 263 252 260 273 287 292 291 277 298 301 301 300 300 299 298 298 298 298 297 297
181 183 187 188 189 191 189 189 199 198 208 221 221 223 237 235 237 237 230 226 224 220 259 275 257 265 269 273 283 278 276 275 281 294 298 299 298 298 297 297 297 297 296
183 184 182 185 190 191 190 193 203 205 211 222 229 231 243 243 246 244 237 239 239 230 244 276 281 271 262 265 267 274 284 284 274 290 296 298 299 299 299 298 298 297 295
178 178 179 187 192 193 194 200 204 209 215 223 226 230 240 239 249 250 246 247 248 252 241 262 278 268 266 268 274 277 275 275 279 287 293 296 298 299 298 298 297 297 296
175 179 184 189 190 191 196 202 207 214 222 230 231 233 239 238 246 252 253 250 252 255 255 261 273 275 267 266 266 278 287 270 274 280 283 287 291 295 296 297 298 299 298
176 176 177 184 188 192 201 203 207 212 219 235 245 247 249 256 261 264 264 257 249 254 259 265 274 280 275 276 271 266 282 283 269 261 266 272 279 277 284 290 296 295 294
169 168 180 187 196 210 218 216 212 208 218 232 248 256 261 265 273 280 283 283 278 272 268 263 271 274 275 268 269 271 280 291 288 249 253 270 264 269 271 266 284 291 294
169 176 186 190 205 220 223 228 228 217 222 234 243 254 267 269 280 271 280 287 287 286 283 279 272 270 274 271 273 275 270 273 277 270 267 277 265 269 271 280 291 295 297
174 184 193 199 207 228 232 240 242 228 234 241 244 246 254 264 269 277 270 270 269 274 280 282 268 268 269 269 260 267 272 276 272 265 250 272 272 269 277 276 288 294 299
176 185 190 194 207 235 240 246 249 230 241 252 255 254 259 260 276 289 287 275 278 276 285 287 286 288 293 299 301 297 292 292 292 280 238 251 270 280 273 268 281 294 303
177 179 190 197 208 231 250 256 258 228 244 255 260 261 271 279 285 292 284 271 277 278 278 284 287 292 294 294 299 290 274 281 290 286 246 250 271 294 292 266 267 283 295